Location: 5810 Zion Rd, Cleves, OH 45002, USA
(39.1922°N, 84.7113°W)
Time: 13:21:14
(UTC-05:00)

Courier 1B Rocket - Pass Details

Date: 14 December 2019
Orbit: 920 x 1202 km, 28.2° (Epoch: 28 January)

Event Time Altitude Azimuth Distance (km) Brightness Sun altitude
Rises 06:17:18 0° 243° (WSW) 3,946 - -17.4°
Exits shadow 06:19:43 - 236° (WSW) 3,173 7.3 -16.9°
Reaches altitude 10° 06:20:28 10° 234° (SW) 2,942 7.2 -16.8°
Maximum altitude 06:26:39 32° 174° (S) 1,722 6.5 -15.7°
Drops below altitude 10° 06:32:28 10° 114° (ESE) 2,761 8.8 -14.6°
Sets 06:35:20 0° 105° (ESE) 3,670 10.0 -14.1°
